Погода Сырдарья

Погода Сырдарья : погода сейчас, прогноз погоды и архив. Всё, что Вы хотите узнать о погоде Сырдарья!

Поиск расширенной информации на нашем сайте:

Другие новости

Новости СМИ2

Главная страница сайта

Новости сайта

03.07.2017

Напоминаем, что на нашем специализированном сайте Метеоцентр.Азия вы можете получить высокодетализированные автоматические прогнозы погоды по пунктам России, СНГ и мира в авиационном формате (включающие направление и скорость ветра, видимость, явления погоды, количество и форму облачности, нижнюю и верхнюю границу облачности).


Погода Сырдарья - сегодня

Время (UTC), дата Ветер
(°,м/с) 
Видим.   Явления Облачность Т
(°С)
Тd
(°С)
f(%) Тe
(°С)
Pmin
(гПа)
dP
(гПа)
Po
(мм)
O2
(г/м3)
Тmin Tmax R s Состояние
почвы
15 16.04.18 090 (В) 10 км    6/3 600 м средняя, верхняя 
[Cu med, cong|Ac lent|Ci fib]
+17.7 +9.8 60 +20  1017.6  -0.7  740  278    +22.4       
18 16.04.18 тихо ()   10 км    4/0 средняя, верхняя 
[Ac lent|Ci fib]
+13.4 +9.9 79 +15  1017.3  -0.6  740  282    +22.4       
21 16.04.18 090 (В) 10 км    5/0 средняя, верхняя 
[Ac lent|Ci fib]
+12.3 +9.8 85 +15  1016.5  -0.9  739  283           
00 17.04.18 тихо ()   10 км    8/0 средняя, верхняя 
[Ac lent|Ci fib]
+11.4 +9.4 87 +12  1015.9  -0.8  738  284           
03 17.04.18 110 (В) 10 км    8/6 1000 м средняя, верхняя 
[Sc|Ac lent|Ci fib]
+13.3 +10.9 85 +18  1015.4  -0.2  738  282           
06 17.04.18 270 (З) 10 км    10/3 1000 м средняя, верхняя 
[Sc|Ac lent|Ci fib]
+17.9 +8.6 54 +18  1015.4  3.4  738  278  +10.4         
09 17.04.18 270 (З) 10 км    10/5 600 м средняя, верхняя 
[Cu med, cong|Ac lent|Ci fib]
+19.6 +3.6 35 +20  1016  0.4  739  277           
12 17.04.18 270 (З) 10 км  ливневой дождь  10/10 600 м кучево-дожд. 
[Cb cap]
+8.6 +7.3 92 +7  1021.7  4.7  742  289           
15 17.04.18 тихо ()   10 км  ливневой дождь  10/10 600 м кучево-дожд. 
[Cb cap]
+8.5 +7 90 +9  1024.3  2.6  744  290    +19.2       
18 17.04.18 230 (ЮЗ) 10 км  ливневой дождь  10/10 600 м кучево-дожд. 
[Cb cap]
+8.4 +7.3 93 +9  1025.5  1.1  745  290    +19.2     
21 17.04.18 160 (Ю) 10 км  ливневой дождь  10/10 600 м кучево-дожд. 
[Cb cap]
+8.1 +7.3 95 +8  1026  0.4  745  290           
00 18.04.18 270 (З) 10 км  слаб. ливневой дождь  10/10 600 м кучево-дожд. 
[Cb cap]
+7.9 +6.4 90 +8  1026.3  0.3  746  291           
03 18.04.18 340 (С) 10 км  {ливн. осадки}  10/8 600 м кучево-дожд., средняя, верхняя 
[Cb cap|Ac lent|Ci fib]
+8.4 +5.9 84 +8  1027.5  1.2             
06 18.04.18 290 (З) 10 км  {ливн. осадки}  10/8 600 м кучево-дожд., средняя, верхняя 
[Cb cap|Ac lent|Ci fib]
+11.1 +3.6 60 +11  1028  0.8  747  289  +7.4       
09 18.04.18 200 (Ю) 10 км    10/8 600 м кучево-дожд., средняя, верхняя 
[Cb cap|Ac lent|Ci fib]
+13.6 +2.9 48 +15  1026.9  -0.7  747  286           
12 18.04.18 180 (Ю) 10 км    10/8 600 м кучево-дожд., средняя, верхняя 
[Cb cap|Ac lent|Ci fib]
+13.4 +4.8 56 +14  1026  -1  746  286           
15 18.04.18 230 (ЮЗ) 10 км    10/8 600 м кучево-дожд., средняя, верхняя 
[Cb cap|Ac lent|Ci fib]
+11 +6.1 72 +12  1026.4  0.1  746  288    +14.9       
18 18.04.18 250 (З) 10 км    10/8 600 м кучево-дожд., средняя, верхняя 
[Cb cap|Ac lent|Ci fib]
+9.6 +7.6 87 +11  1026.3  -0.2  746  289    +14.9       
21 18.04.18 290 (З) 10 км    10/6 600 м кучево-дожд., средняя, верхняя 
[Cb cap|Ac lent|Ci fib]
+9.1 +6.7 85 +10  1024.7  -1.7  744  289           
00 19.04.18 090 (В) 10 км    10/8 600 м кучево-дожд., средняя, верхняя 
[Cb cap|Ac lent|Ci fib]
+8.8 +7.3 90 +10  1024.1  -0.5  744  289           
03 19.04.18 тихо ()   10 км    10/5 1000 м средняя, верхняя 
[Sc|Ac lent|Ci fib]
+10.1 +7.8 86 +10  1023.8  -0.2  744  288           
06 19.04.18 340 (С) 10 км    8/3 600 м средняя, верхняя 
[Cu med, cong|Ac lent|Ci fib]
+14.3 +3.8 49 +15  1022.8  -0.5  744  284  +8.3         
09 19.04.18 340 (С) 10 км    10/5 600 м средняя, верхняя 
[Cu med, cong|Ac lent|Ci fib]
+15.7 +3.2 43 +16  1021.2  -1.4  743  282           
12 19.04.18 290 (З) 10 км    8/6 600 м средняя, верхняя 
[Cu med, cong|Ac lent|Ci fib]
+16.9 +2.3 37 +18  1020.2  -0.8  742  281           
15 19.04.18 340 (С) 10 км    10/8 1000 м средняя, верхняя 
[Sc|Ac lent|Ci fib]
+14.5 +5.1 53 +15  1020.5  0.1  742  283    +17.4       
Время (UTC), дата Ветер
(°,м/с) 
Видим.   Явления Облачность Т
(°С)
Тd
(°С)
f(%) Тe
(°С)
Pmin
(гПа)
dP
(гПа)
Po
(мм)
O2
(г/м3)
Тmin Tmax R s Состояние
почвы

Для получения пояснительной информации подведите курсор к названию столбца.

ПОГОДА Сырдарья - архив

Всё, что Вы хотите узнать о погоде Сырдарья - удобно и подробно!

Выберите нужную дату (начиная с 1 января 2015* года) и нажмите кнопку "Найти".
Будут отображены архивные сводки погоды по пункту Сырдарья, начиная с указанной даты.


Отображать данные в формате CSV (для использования в таблицах Excel)


Внимание! Наш архив погоды предназначен исключительно для личного некоммерческого использования в познавательных целях. Если Вам необходимы официальные справки о состоянии погоды (для производственных, юридических, коммерческих и т.п. целей), обращайтесь в органы Росгидромета.

*Примечание: данная дата относится к архиву по метеостанциям СССР (Россия, СНГ, Балтия).
Архив по метеостанциям Зарубежной Европы и Азии (кроме Китая) хранится 10 дней, по другим регионам земного шара (Китай, Африка, Америка, Австралия, Океания) - 1 день.

Сырдарья - район местоположения метеостанции


Название, широта, долгота, высота метеостанции:
Сырдарья 40.8°ш. 68.7°д. 264 м над ур. моря [Узбекистан]

Дополнительная информация

В oтличие oт бoльшинства пoгoдных сайтoв мы публикуем пoдрoбную метеoинфoрмацию в детальнoм прoфессиoнальнoм фoрмате.

Характеристики температуры и влажнoсти вoздуха измеряются на высoте 2 м в тени вдали oт зданий и деревьев.
Скoрoсть ветра измеряется на высoте 10 м (на урoвне рoста челoвека скoрoсть ветра ниже в 1.5-2 раза). Если метеoстанция нахoдится в гoрoде или в лесу, тo скoрoсть ветра занижена на 2-4 м/с пo сравнению с oткрытым местoм. Скoрoсть ветра над акватoриями крупных рек и oзёр, а также на вершинах хoлмoв на 2-5 м/с выше, чем в oбычных услoвиях.
Атмoсфернoе давление в разных тoчках местнoсти мoжет значительнo oтличаться oт давления на метеoстанции, в зависимoсти oт услoвий рельефа (при пoдъёме на 10 м давление пoнижается примернo на 1 мм рт.ст.).